Location: Unspecified
(0.0000°N, 0.0000°E)
Time: 16:58:37
(UTC+00:00)

Injun/Solrad 3 - Visible Passes

Search period start: 14 March 2026 00:00
Search period end: 24 March 2026 00:00
Orbit: 871 x 985 km, 66.8° (Epoch: 13 March)

Date Brightness Start Highest point End Pass type
(mag) Time Alt. Az. Time Alt. Az. Time Alt. Az.
14 Mar 10.6 02:57:19 11° E 02:57:19 11° E 02:57:50 10° E visible
14 Mar 7.8 04:41:08 42° WSW 04:42:32 52° WNW 04:48:10 10° N visible
15 Mar 10.3 03:10:22 15° ENE 03:10:22 15° ENE 03:11:38 10° ENE visible
15 Mar 8.6 04:54:08 28° WNW 04:54:08 28° WNW 04:58:25 10° NNW visible
16 Mar 10.2 03:22:52 14° NE 03:22:52 14° NE 03:23:41 10° NE visible
16 Mar 9.5 05:06:36 13° NW 05:06:36 13° NW 05:07:47 10° NW visible
17 Mar 10.3 03:34:58 10° NNE 03:34:58 10° NNE 03:35:04 10° NNE visible
